Weather History for KXNA - February, 2013

Change the Weather History Date:

Tuesday, February 12, 2013

  Actual Average Record
Temperature  
Mean Temperature 36 °F -  
Max Temperature 43 °F - - ()
Min Temperature 28 °F - - ()
Degree Days  
Heating Degree Days 30    
Moisture  
Dew Point 31 °F    
Average Humidity 81    
Maximum Humidity 100    
Minimum Humidity 58    
Precipitation  
Precipitation 0.21 in - - ()
Sea Level Pressure  
Sea Level Pressure 30.01 in    
Wind  
Wind Speed 6 mph (NNE)    
Max Wind Speed 13 mph    
Max Gust Speed -    
Visibility 8 miles    
Events Rain , Snow    
T = Trace of Precipitation, MM = Missing Value Source: NWS Daily Summary

Daily Weather History Graph

Daily Weather History Graph

Search for Another Location

Airport or City:

Trip Planner

Search our weather history database for the weather conditions in past years. The results will help you decide how hot, cold, wet, or windy it might be!

Date:

Astronomy

Feb. 12, 2013 Rise Set
Actual Time 7:07 AM CST 5:55 PM CST
Civil Twilight 6:41 AM CST 6:22 PM CST
Nautical Twilight 6:11 AM CST 6:52 PM CST
Astronomical Twilight 5:41 AM CST 7:22 PM CST
Moon 8:11 AM CST (2/12) 8:49 PM CST (2/12)
Length of Visible Light 11h 40m
Length of Day
10h 47m
Waxing Crescent, 7% of the Moon is Illuminated
Feb 12
Waxing Crescent
Feb 17
First Quarter
Feb 25
Full
Mar 4
Last Quarter
Mar 11
New

Hourly Weather History & Observations

Time (CST) Temp. Windchill Dew Point Humidity Pressure Visibility Wind Dir Wind Speed Gust Speed Precip Events Conditions
12:53 AM 33.1 °F 27.7 °F 27.0 °F 78% 30.13 in 10.0 mi North 5.8 mph - N/A   Partly Cloudy
1:53 AM 33.1 °F 26.9 °F 27.0 °F 78% 30.12 in 10.0 mi NNE 6.9 mph - N/A   Clear
2:53 AM 28.9 °F 23.9 °F 25.0 °F 85% 30.10 in 10.0 mi North 4.6 mph - N/A   Clear
3:53 AM 30.0 °F 24.1 °F 25.0 °F 82% 30.07 in 10.0 mi North 5.8 mph - N/A   Clear
4:53 AM 30.9 °F 26.2 °F 26.1 °F 82% 30.08 in 10.0 mi NNE 4.6 mph - N/A   Clear
5:53 AM 30.0 °F 26.5 °F 26.1 °F 85% 30.07 in 10.0 mi NE 3.5 mph - N/A   Clear
6:53 AM 33.1 °F - 27.0 °F 78% 30.09 in 10.0 mi Calm Calm - N/A   Mostly Cloudy
7:53 AM 33.1 °F 27.7 °F 28.9 °F 85% 30.08 in 10.0 mi North 5.8 mph - N/A   Mostly Cloudy
8:53 AM 37.0 °F 33.3 °F 30.0 °F 76% 30.08 in 10.0 mi NNE 4.6 mph - N/A   Partly Cloudy
9:53 AM 41.0 °F 36.4 °F 30.0 °F 65% 30.06 in 8.0 mi East 6.9 mph - N/A   Overcast
10:53 AM 41.0 °F 35.2 °F 28.9 °F 62% 30.09 in 10.0 mi East 9.2 mph - N/A   Overcast
11:53 AM 42.1 °F 37.7 °F 30.0 °F 62% 30.05 in 10.0 mi ENE 6.9 mph - N/A   Overcast
12:53 PM 43.0 °F 37.7 °F 28.9 °F 58% 30.03 in 10.0 mi NNE 9.2 mph - N/A   Overcast
1:53 PM 43.0 °F 38.2 °F 28.9 °F 58% 29.99 in 10.0 mi ENE 8.1 mph - N/A   Overcast
2:53 PM 43.0 °F 36.4 °F 30.0 °F 60% 29.94 in 10.0 mi ENE 12.7 mph - 0.00 in   Overcast
3:53 PM 43.0 °F 39.5 °F 30.9 °F 62% 29.93 in 10.0 mi NE 5.8 mph - 0.00 in   Overcast
4:53 PM 43.0 °F 38.2 °F 30.9 °F 62% 29.91 in 10.0 mi NE 8.1 mph - N/A   Overcast
5:53 PM 41.0 °F 36.4 °F 33.1 °F 73% 29.94 in 10.0 mi ENE 6.9 mph - 0.00 in Rain Light Rain
6:04 PM 39.2 °F 35.0 °F 33.8 °F 81% 29.92 in 10.0 mi NE 5.8 mph - 0.00 in Rain Light Rain
6:53 PM 37.0 °F 31.0 °F 35.1 °F 93% 29.96 in 7.0 mi North 8.1 mph - 0.07 in Rain Light Rain
7:17 PM 35.6 °F 29.9 °F 35.6 °F 100% 29.95 in 6.0 mi North 6.9 mph - 0.03 in Rain Light Rain
7:48 PM 35.6 °F 29.9 °F 35.6 °F 100% 29.95 in 9.0 mi NNE 6.9 mph - 0.05 in Rain Light Rain
7:53 PM 36.0 °F 31.1 °F 35.1 °F 97% 29.97 in 9.0 mi NNE 5.8 mph - 0.05 in Rain Light Rain
8:37 PM 35.6 °F 30.7 °F 35.6 °F 100% 29.96 in 9.0 mi North 5.8 mph - 0.01 in Rain Light Rain
8:53 PM 36.0 °F 28.5 °F 36.0 °F 100% 29.98 in 6.0 mi North 10.4 mph - 0.02 in Rain Light Rain
9:53 PM 35.1 °F 28.6 °F 35.1 °F 100% 29.99 in 8.0 mi North 8.1 mph - 0.02 in   Overcast
10:53 PM 33.1 °F 26.1 °F 33.1 °F 100% 29.99 in 2.5 mi North 8.1 mph - 0.02 in Snow Light Snow
11:16 PM 32.0 °F 25.6 °F 32.0 °F 100% 29.96 in 1.8 mi North 6.9 mph - 0.00 in Snow Light Snow
11:53 PM 32.0 °F 26.4 °F 32.0 °F 100% 29.97 in 1.5 mi North 5.8 mph - 0.03 in Snow Light Snow